Location: Unspecified
(52.0000°N, 4.4000°E)
Time: 06:05:12
(UTC+00:00)

USA 59 Rocket - Pass Details

Date: 14 May 2025
Orbit: 373 x 1695 km, 63.3° (Epoch: 22 June)

Event Time Altitude Azimuth Distance (km) Brightness Sun altitude
Exits shadow 23:56:31 49° 99° (E) 516 -0.4 -19.0°
Drops below altitude 10° 23:59:01 10° 53° (NE) 1,393 2.4 -19.0°
Sets 00:00:59 0° 49° (NE) 2,249 3.7 -19.0°
